Weather History for KGLH - July, 2013

Change the Weather History Date:

Thursday, July 4, 2013

  Actual Average Record
Temperature  
Mean Temperature 77 °F 82 °F  
Max Temperature 91 °F 92 °F 104 °F (1970)
Min Temperature 62 °F 72 °F 59 °F (1924)
Degree Days  
Heating Degree Days 0 0  
Month to date heating degree days 0 0  
Since 1 June heating degree days 0 0  
Since 1 July heating degree days 0 0  
Cooling Degree Days 12 17  
Month to date cooling degree days 44 66  
Year to date cooling degree days 786 808  
Since 1 June cooling degree days 503 486  
Growing Degree Days 28 (Base 50)    
Moisture  
Dew Point 59 °F    
Average Humidity 57    
Maximum Humidity 87    
Minimum Humidity 27    
Precipitation  
Precipitation 0.00 in 0.15 in 2.70 in (1976)
Month to date precipitation 0.00 0.61  
Year to date precipitation 26.21 28.91  
Sea Level Pressure  
Sea Level Pressure 30.01 in    
Wind  
Wind Speed 4 mph (NNW)    
Max Wind Speed 13 mph    
Max Gust Speed 20 mph    
Visibility 10 miles    
Events      
T = Trace of Precipitation, MM = Missing Value Source: NWS Daily Summary

Daily Weather History Graph

Daily Weather History Graph

Search for Another Location

Airport or City:

Trip Planner

Search our weather history database for the weather conditions in past years. The results will help you decide how hot, cold, wet, or windy it might be!

Date:

Astronomy

Jul. 04, 2013 Rise Set
Actual Time 5:59 AM CDT 8:17 PM CDT
Civil Twilight 5:30 AM CDT 8:46 PM CDT
Nautical Twilight 4:55 AM CDT 9:21 PM CDT
Astronomical Twilight 4:16 AM CDT 9:59 PM CDT
Moon 3:12 AM CDT (7/4) 5:25 PM CDT (7/4)
Length of Visible Light 15h 15m
Length of Day
14h 18m
Waning Crescent, 11% of the Moon is Illuminated
Jul 4
Waning Crescent
Jul 8
New
Jul 15
First Quarter
Jul 22
Full
Jul 29
Last Quarter

Hourly Weather History & Observations

Time (CDT) Temp. Heat Index Dew Point Humidity Pressure Visibility Wind Dir Wind Speed Gust Speed Precip Events Conditions
12:53 AM 66.9 °F - 59.0 °F 76% 30.03 in 10.0 mi Calm Calm - N/A   Clear
1:53 AM 66.9 °F - 60.1 °F 79% 30.01 in 10.0 mi Calm Calm - N/A   Clear
2:53 AM 66.0 °F - 60.1 °F 81% 30.01 in 10.0 mi Calm Calm - N/A   Clear
3:53 AM 64.9 °F - 60.1 °F 84% 30.01 in 10.0 mi NNE 3.5 mph - N/A   Clear
4:53 AM 64.0 °F - 59.0 °F 84% 30.02 in 10.0 mi Calm Calm - N/A   Clear
5:53 AM 64.0 °F - 59.0 °F 84% 30.02 in 10.0 mi Calm Calm - N/A   Clear
6:53 AM 64.9 °F - 60.1 °F 84% 30.03 in 10.0 mi Calm Calm - N/A   Clear
7:53 AM 70.0 °F - 63.0 °F 78% 30.03 in 10.0 mi North 3.5 mph - N/A   Clear
8:53 AM 75.0 °F - 66.0 °F 73% 30.04 in 10.0 mi NNE 3.5 mph - N/A   Clear
9:53 AM 80.1 °F 82.7 °F 68.0 °F 67% 30.04 in 10.0 mi North 5.8 mph - N/A   Clear
10:53 AM 84.9 °F 85.9 °F 63.0 °F 48% 30.04 in 10.0 mi North 10.4 mph - N/A   Clear
11:53 AM 87.1 °F 86.5 °F 59.0 °F 39% 30.04 in 10.0 mi North 8.1 mph - N/A   Clear
12:53 PM 88.0 °F 86.9 °F 57.9 °F 36% 30.03 in 10.0 mi North 6.9 mph - N/A   Clear
1:53 PM 89.1 °F 86.9 °F 54.0 °F 30% 30.01 in 10.0 mi NNW 8.1 mph - N/A   Clear
2:53 PM 90.0 °F - 51.1 °F 26% 30.00 in 10.0 mi NNE 6.9 mph - N/A   Clear
3:53 PM 91.0 °F 88.5 °F 53.1 °F 27% 29.98 in 10.0 mi North 5.8 mph - N/A   Clear
4:53 PM 90.0 °F 87.7 °F 54.0 °F 29% 29.96 in 10.0 mi WNW 6.9 mph - N/A   Clear
5:53 PM 88.0 °F - 52.0 °F 29% 29.96 in 10.0 mi NW 5.8 mph - N/A   Clear
6:53 PM 86.0 °F 84.9 °F 57.0 °F 37% 29.96 in 10.0 mi WNW 6.9 mph - N/A   Clear
7:53 PM 82.0 °F 82.1 °F 59.0 °F 45% 29.97 in 10.0 mi WNW 4.6 mph - N/A   Clear
8:53 PM 77.0 °F - 61.0 °F 58% 29.97 in 10.0 mi WNW 3.5 mph - N/A   Clear
9:53 PM 73.9 °F - 63.0 °F 68% 29.98 in 10.0 mi Calm Calm - N/A   Clear
10:53 PM 72.0 °F - 63.0 °F 73% 29.99 in 10.0 mi Calm Calm - N/A   Clear
11:53 PM 71.1 °F - 63.0 °F 75% 30.00 in 10.0 mi Calm Calm - N/A   Clear